Regional Weather Roundup
Issued by NWS

Home | Current Version | Previous Version | Graphics & Text | Print | Product List | Glossary Off
Versions: 1 2 3 4 5 6 7 8 9 10 11 12 13 14 15 16 17 18 19 20 21 22 23 24 25 26 27 28 29 30 31 32 33 34 35 36 37 38 39 40 41 42 43 44 45 46 47 48 49 50

000
ASUS43 KMPX 270001
RWRMN
WEATHER ROUNDUP FOR MINNESOTA
NATIONAL WEATHER SERVICE TWIN CITIES/CHANHASSEN MN
600 PM CST THU FEB 26 2015


NOTE: "FAIR" INDICATES FEW OR NO CLOUDS BELOW 12,000 FEET WITH NO
SIGNIFICANT WEATHER AND/OR OBSTRUCTIONS TO VISIBILITY. N/A MEANS
CURRENT SKY AND/OR WEATHER CONDITIONS ARE NOT AVAILABLE.

MNZ060>063-068>070-270100-
   Twin Cities Metro

CITY           SKY/WX    TMP DP  RH WIND       PRES   REMARKS
TWIN CITIES    CLEAR      7  -8  50 NW10      30.44S WCI  -8
6HR MIN TEMP:   7; 6HR MAX TEMP:  11;

ST PAUL        CLEAR      7  -7  52 NW13      30.46S WCI  -9
CRYSTAL        CLEAR      8  -7  50 NW10      30.44R WCI  -6
LAKEVILLE      CLEAR      1  -8  66 W8        30.43S WCI -12
EDEN PRAIRIE   CLEAR      7  -8  50 NW9       30.43S WCI  -7
6HR MIN TEMP:   6; 6HR MAX TEMP:  10;

SOUTH ST PAUL  CLEAR      9  -7  49 NW7       30.44S WCI  -2
LAKE ELMO      FAIR       9  -6  52 NW7       30.43S WCI  -3
$$
MNZ001>005-007-008-013>017-022>024-027-028-270100-
   Northwest Minnesota

CITY           SKY/WX    TMP DP  RH WIND       PRES   REMARKS
BEMIDJI        CLEAR     -1 -11  63 W10       30.42R WCI -18
HALLOCK        CLEAR      5  -6  61 NW5       30.50S WCI  -4
ROSEAU         CLEAR      3  -8  60 W10       30.44S WCI -12
WARROAD        CLEAR      3  -8  60 W13       30.42S WCI -14
THIEF RVR FALL CLEAR      1  -6  71 NW6       30.46F WCI -10
CROOKSTON      CLEAR      5  -2  72 NW6       30.52S WCI  -6
FOSSTON        CLEAR      0  -9  65 W6        30.46F WCI -12
DETROIT LAKES  PTCLDY     3  -4  72 NW9       30.46S HAZE    WCI -11
MOORHEAD       CLEAR      7  -2  66 NW7       30.53S WCI  -5
PARK RAPIDS    CLEAR      1 -11  57 NW13      30.41R WCI -17
MAHNOMEN       FAIR       2  -5  71 NW8       30.47S WCI -12
$$
MNZ006-009>011-018-025>026-270100-
   North Central Minnesota

CITY           SKY/WX    TMP DP  RH WIND       PRES   REMARKS
BAUDETTE       CLEAR      3 -11  52 W8        30.38S WCI -10
FLAG ISLAND    CLEAR      7  -9  47 NW7       30.38S WCI  -5
INTL FALLS     PTCLDY     0 -14  51 W6        30.37S WCI -12
6HR MIN TEMP:  -1; 6HR MAX TEMP:   3;

WASKISH        CLEAR      1  -8  66 W8        30.41S WCI -12
BIG FORK       CLEAR      3 -15  43 CALM      30.38S
LONGVILLE      CLEAR      1 -13  51 NW5       30.41S WCI  -8
GRAND RAPIDS   CLEAR      1 -13  51 W8        30.36S WCI -12
CRANE LAKE     CLEAR      1 -15  46 CALM      30.38S
ORR            CLEAR      1 -17  42 W7        30.33R WCI -11
COOK           CLEAR      3 -13  47 W8        30.35R WCI -10
WALKER         FAIR       2 -13  49 NW6       30.41R WCI  -9
$$
MNZ012-019>021-037-270100-
   Northeast Minnesota

CITY           SKY/WX    TMP DP  RH WIND       PRES   REMARKS
DULUTH         CLEAR      6 -11  45 NW9       30.32S WCI  -8
6HR MIN TEMP:   2; 6HR MAX TEMP:   8;

ELY            CLEAR      1 -15  46 W7        30.31R WCI -11
HIBBING        CLEAR      4 -13  45 W7        30.35S WCI  -8
EVELETH        CLEAR      5 -11  47 W8        30.34S WCI  -8
DULUTH HARBOR  CLEAR      9  -8  47 W13       30.42R WCI  -7
TWO HARBORS    CLEAR      9  -8  47 CALM      30.33R
SILVER BAY     CLEAR      7 -11  43 W3        30.31S
GRAND MARAIS     N/A      7 -10  46 W7        30.34S WCI  -5
G MARAIS ARPRT CLEAR      0 -15  50 W7G16     30.21S WCI -13
$$
MNZ029>031-032-039>041-046>048-054>057-064-270100-
   West Central Minnesota

CITY           SKY/WX    TMP DP  RH WIND       PRES   REMARKS
FERGUS FALLS   CLEAR      3  -8  60 N12       30.54R WCI -13
WHEATON        CLEAR      0  -8  71 NW10      30.55R WCI -17
MORRIS         CLEAR      3  -6  66 NW13      30.49R WCI -14
ALEXANDRIA     CLEAR      1  -9  62 NW10      30.44S WCI -15
ELBOW LAKE     FAIR       2  -6  69 N9        30.48S WCI -13
WADENA         CLEAR      0  -9  65 NW9       30.43S WCI -16
GLENWOOD       CLEAR      1  -8  66 NW12      30.45S WCI -15
APPLETON       CLEAR      3  -6  66 NW10      30.53R WCI -12
BENSON         PTCLDY     3  -6  66 N12       30.49S WCI -13
ORTONVILLE       N/A      1  -8  66 NW9       30.52S WCI -14
MADISON        CLEAR      1  -8  66 NW9       30.53S WCI -14
WILLMAR        FAIR       3  -6  66 NW9       30.48S WCI -11
$$
MNZ033>034-036-042>043-049>051-058-059-270100-
   Central Minnesota

CITY           SKY/WX    TMP DP  RH WIND       PRES   REMARKS
ST CLOUD       CLEAR      4  -8  57 NW10      30.44S WCI -11
6HR MIN TEMP:   2; 6HR MAX TEMP:   8;

SAUK CENTRE    FAIR       3  -8  59 NW12      30.45R WCI -13
PAYNESVILLE    CLEAR      1  -8  63 W10       30.45S WCI -14
AITKIN         CLEAR      7 -11  43 NW6       30.40R WCI  -3
PINE RIVER     CLEAR      5  -9  51 NW5       30.43S WCI  -4
BRAINERD       CLEAR      5 -11  47 NW7       30.41S WCI  -7
STAPLES        CLEAR      1 -11  55 W9        30.43R WCI -14
LONG PRAIRIE   FAIR       3  -8  60 W9        30.44R WCI -11
LITTLE FALLS   CLEAR      5  -9  51 W5        30.44R WCI  -4
LITCHFIELD     CLEAR      5  -6  61 NW8       30.46R WCI  -8
MAPLE LAKE     CLEAR      7  -5  59 NW7       30.45S WCI  -5
$$
MNZ037-044-045-052-053-270100-
   East Central Minnesota

CITY           SKY/WX    TMP DP  RH WIND       PRES   REMARKS
PRINCETON      CLEAR      5  -8  56 W6        30.43S WCI  -6
MORA           CLEAR      7  -8  51 NW9       30.43S WCI  -7
CAMBRIDGE      CLEAR      9  -6  52 W6        30.41S WCI  -1
RUSH CITY      PTCLDY     5  -9  51 NW3       30.43S
MOOSE LAKE     CLEAR      9  -9  43 CALM      30.37S
HINCKLEY       FAIR       7  -8  51 W8        30.41R WCI  -6
CLOQUET        CLEAR      5 -13  43 W10       30.35S WCI -10
MCGREGOR       CLEAR      5  -9  51 W5        30.40R WCI  -4
$$
MNZ071>073-080-081-089-090-097-098-270100-
   Southwest Minnesota

CITY           SKY/WX    TMP DP  RH WIND       PRES   REMARKS
MONTEVIDEO     CLEAR      1  -8  66 N9        30.52S WCI -14
GRANITE FALLS  CLEAR      0  -7  71 W12       30.53S WCI -17
CANBY          PTCLDY     1  -6  69 NW9       30.53S WCI -14
MARSHALL       CLEAR      0  -8  71 N12       30.50F WCI -18
REDWOOD FALLS  PTCLDY     2  -7  66 NW10      30.50R WCI -14
OLIVIA         CLOUDY     1  -2  85 NW9       30.48S FOG     WCI -14
PIPESTONE      CLEAR      1  -6  71 N12G17    30.44S WCI -15
WINDOM         PTCLDY     0  -6  78 NW12      30.46R WCI -18
WORTHINGTON    CLEAR     23 -11  21 N10       30.47R WCI  12
JACKSON        PTCLDY     1  -8  66 NW17      30.45R WCI -19
TRACY          PTCLDY     1  -6  73 N13       30.48S WCI -17
SLAYTON        CLEAR      0  -9  65 N10G16    30.45S WCI -17
$$
MNZ065>067-074>077-082>085-091>093-270100-
   South Central Minnesota

CITY           SKY/WX    TMP DP  RH WIND       PRES   REMARKS
MANKATO        CLEAR      1  -9  60 NW13G20   30.46R WCI -16
NEW ULM        CLEAR      0  -8  71 NW10      30.48S WCI -17
ST JAMES       MOCLDY     1  -4  78 NW9       30.49R HAZE    WCI -14
FAIRMONT       PTCLDY     1  -8  66 NW12      30.45R WCI -15
GLENCOE        CLEAR      4  -4  70 W9        30.45S WCI -10
FARIBAULT      CLEAR      3  -8  60 W9        30.43S WCI -11
OWATONNA       CLEAR      1  -9  60 W9        30.43R WCI -14
WASECA         CLEAR      1  -8  66 W9        30.45S WCI -14
ALBERT LEA     CLEAR      1  -8  66 NW5       30.43R WCI  -8
$$
MNZ078>079-086>088-094>096-270100-
   Southeast Minnesota

CITY           SKY/WX    TMP DP  RH WIND       PRES   REMARKS
ROCHESTER      CLEAR      1  -8  66 NW13      30.39R WCI -17
6HR MIN TEMP:   1; 6HR MAX TEMP:   5;

RED WING       CLEAR      9  -9  43 NW5       30.43R WCI   0
STANTON        FAIR       5  -7  57 W6        30.42S WCI  -6
DODGE CENTER   PTCLDY     3  -6  66 NW10      30.39S WCI -12
WINONA         CLEAR     10  -4  52 NW7       30.44S WCI   0
AUSTIN         CLEAR      1  -8  66 NW8       30.41S WCI -12
PRESTON        CLEAR      2  -8  61 NW9       30.39R WCI -13
$$
ABBREVIATIONS USED IN REMARKS
   TC - TEMPERATURES IN CELSIUS
  WCI - WIND CHILL INDEX
   HX - HEAT INDEX
  VSB - VISIBILITY
$$



USA.gov is the U.S. government's official web portal to all federal, state and local government web resources and services.